| time (UTC) | temp F | wind direction | speed MPH | gust MPH | rain 1hr in | rain 24hr in | rain mn in | humidity % | barometer mb |
| 20260506171041 | 62 | 155 | 2.0 | 7.0 | 0.00 | 0.25 | 0.25 | 89 | 1007.7 |
| 20260506170540 | 62 | 0 | 1.0 | 8.0 | 0.00 | 0.25 | 0.25 | 90 | 1007.7 |
| 20260506170049 | 62 | 192 | 3.0 | 11.0 | 0.00 | 0.25 | 0.25 | 90 | 1007.7 |
| 20260506165542 | 61 | 166 | 4.0 | 11.0 | 0.00 | 0.25 | 0.25 | 89 | 1007.7 |
| 20260506165041 | 61 | 143 | 3.0 | 8.0 | 0.00 | 0.25 | 0.25 | 90 | 1007.8 |
| 20260506164558 | 61 | 169 | 2.0 | 10.0 | 0.00 | 0.25 | 0.25 | 90 | 1007.7 |
| 20260506164041 | 61 | 148 | 4.0 | 11.0 | 0.00 | 0.25 | 0.25 | 90 | 1007.7 |
| 20260506163540 | 61 | 165 | 4.0 | 11.0 | 0.00 | 0.25 | 0.25 | 90 | 1007.7 |
| 20260506163054 | 61 | 181 | 5.0 | 11.0 | 0.00 | 0.25 | 0.25 | 90 | 1007.8 |
| 20260506162540 | 61 | 176 | 3.0 | 11.0 | 0.00 | 0.25 | 0.25 | 91 | 1007.8 |
| 20260506162039 | 61 | 143 | 4.0 | 11.0 | 0.00 | 0.25 | 0.25 | 91 | 1007.7 |
| 20260506161604 | 61 | 0 | 4.0 | 12.0 | 0.00 | 0.25 | 0.25 | 91 | 1007.7 |
| 20260506161040 | 61 | 174 | 5.0 | 12.0 | 0.00 | 0.25 | 0.25 | 91 | 1007.8 |
| 20260506160540 | 61 | 158 | 2.0 | 11.0 | 0.00 | 0.25 | 0.25 | 92 | 1007.7 |
| 20260506160052 | 61 | 181 | 4.0 | 14.0 | 0.00 | 0.25 | 0.25 | 91 | 1007.7 |
| 20260506155541 | 61 | 128 | 2.0 | 14.0 | 0.00 | 0.25 | 0.25 | 92 | 1007.7 |
| 20260506155041 | 61 | 148 | 5.0 | 13.0 | 0.00 | 0.25 | 0.25 | 91 | 1007.9 |
| 20260506154610 | 61 | 178 | 5.0 | 14.0 | 0.01 | 0.25 | 0.25 | 92 | 1007.8 |
| 20260506154041 | 61 | 148 | 4.0 | 14.0 | 0.01 | 0.25 | 0.25 | 92 | 1007.8 |
| 20260506153541 | 60 | 183 | 5.0 | 13.0 | 0.02 | 0.25 | 0.25 | 92 | 1007.7 |
| 20260506153049 | 61 | 161 | 4.0 | 12.0 | 0.03 | 0.25 | 0.25 | 92 | 1007.8 |
| 20260506152541 | 61 | 182 | 5.0 | 14.0 | 0.03 | 0.25 | 0.25 | 92 | 1007.8 |
| 20260506152039 | 61 | 202 | 3.0 | 14.0 | 0.03 | 0.25 | 0.25 | 92 | 1007.8 |
| 20260506151551 | 61 | 197 | 5.0 | 12.0 | 0.03 | 0.25 | 0.25 | 93 | 1007.7 |
| 20260506151038 | 61 | 150 | 5.0 | 11.0 | 0.03 | 0.25 | 0.25 | 92 | 1007.7 |
| 20260506150541 | 61 | 171 | 3.0 | 8.0 | 0.03 | 0.25 | 0.25 | 93 | 1007.5 |
| 20260506150054 | 60 | 171 | 3.0 | 9.0 | 0.03 | 0.25 | 0.25 | 93 | 1007.6 |
| 20260506145545 | 60 | 146 | 2.0 | 12.0 | 0.03 | 0.25 | 0.25 | 92 | 1007.7 |
| 20260506145039 | 60 | 159 | 2.0 | 12.0 | 0.02 | 0.24 | 0.24 | 92 | 1007.8 |
| 20260506144601 | 60 | 146 | 4.0 | 12.0 | 0.02 | 0.24 | 0.24 | 92 | 1007.9 |
| 20260506144038 | 60 | 184 | 5.0 | 9.0 | 0.01 | 0.23 | 0.23 | 92 | 1008.0 |
| 20260506143538 | 60 | 142 | 3.0 | 9.0 | 0.01 | 0.23 | 0.23 | 92 | 1008.1 |
| 20260506142540 | 59 | 0 | 0.0 | 4.0 | 0.12 | 0.21 | 0.21 | 92 | 1008.6 |
| 20260506142042 | 59 | 150 | 0.0 | 6.0 | 0.10 | 0.19 | 0.19 | 92 | 1008.8 |
| 20260506141549 | 59 | 148 | 0.0 | 6.0 | 0.10 | 0.18 | 0.18 | 91 | 1008.7 |
| 20260506141042 | 59 | 146 | 1.0 | 6.0 | 0.09 | 0.17 | 0.17 | 91 | 1008.7 |
| 20260506140542 | 60 | 181 | 1.0 | 9.0 | 0.09 | 0.16 | 0.16 | 91 | 1008.5 |
| 20260506140057 | 60 | 178 | 1.0 | 9.0 | 0.06 | 0.13 | 0.13 | 91 | 1008.5 |
| 20260506135542 | 60 | 142 | 2.0 | 8.0 | 0.04 | 0.11 | 0.11 | 91 | 1008.3 |
| 20260506135037 | 60 | 168 | 1.0 | 8.0 | 0.04 | 0.10 | 0.10 | 91 | 1008.4 |
| 20260506134544 | 60 | 0 | 1.0 | 8.0 | 0.04 | 0.10 | 0.10 | 91 | 1008.3 |
| 20260506134042 | 60 | 163 | 3.0 | 8.0 | 0.04 | 0.10 | 0.10 | 91 | 1008.3 |
| 20260506133543 | 60 | 181 | 4.0 | 8.0 | 0.03 | 0.09 | 0.09 | 91 | 1008.3 |
| 20260506133049 | 60 | 150 | 1.0 | 8.0 | 0.03 | 0.09 | 0.09 | 91 | 1008.4 |
| 20260506132541 | 59 | 0 | 3.0 | 8.0 | 0.03 | 0.09 | 0.09 | 91 | 1008.3 |
| 20260506132044 | 59 | 157 | 3.0 | 7.0 | 0.03 | 0.09 | 0.09 | 91 | 1008.2 |
| 20260506131551 | 59 | 197 | 1.0 | 6.0 | 0.02 | 0.08 | 0.08 | 91 | 1008.2 |
| 20260506131039 | 59 | 0 | 2.0 | 7.0 | 0.02 | 0.08 | 0.08 | 90 | 1008.3 |
| 20260506130540 | 59 | 186 | 2.0 | 7.0 | 0.02 | 0.07 | 0.07 | 90 | 1008.2 |
| 20260506130053 | 59 | 180 | 2.0 | 7.0 | 0.02 | 0.07 | 0.07 | 90 | 1008.4 |
| 20260506125538 | 59 | 182 | 3.0 | 7.0 | 0.02 | 0.07 | 0.07 | 90 | 1008.3 |
| 20260506125041 | 59 | 167 | 1.0 | 5.0 | 0.01 | 0.06 | 0.06 | 90 | 1008.2 |
| 20260506124554 | 59 | 187 | 0.0 | 4.0 | 0.02 | 0.06 | 0.06 | 90 | 1008.3 |
| 20260506124039 | 59 | 180 | 1.0 | 4.0 | 0.02 | 0.06 | 0.06 | 90 | 1008.5 |
| 20260506123546 | 59 | 0 | 1.0 | 4.0 | 0.02 | 0.06 | 0.06 | 90 | 1008.4 |
| 20260506123047 | 59 | 0 | 1.0 | 4.0 | 0.02 | 0.06 | 0.06 | 89 | 1008.5 |
| 20260506122540 | 59 | 178 | 0.0 | 3.0 | 0.03 | 0.06 | 0.06 | 89 | 1008.6 |
| 20260506122041 | 59 | 177 | 1.0 | 7.0 | 0.03 | 0.06 | 0.06 | 89 | 1008.7 |
| 20260506121552 | 59 | 173 | 3.0 | 7.0 | 0.04 | 0.06 | 0.06 | 89 | 1008.6 |
| 20260506121042 | 59 | 176 | 1.0 | 6.0 | 0.04 | 0.06 | 0.06 | 89 | 1008.8 |
| 20260506120544 | 59 | 0 | 1.0 | 5.0 | 0.04 | 0.05 | 0.05 | 88 | 1008.7 |
| 20260506120047 | 59 | 0 | 1.0 | 6.0 | 0.05 | 0.05 | 0.05 | 88 | 1008.7 |
| 20260506115542 | 59 | 186 | 2.0 | 6.0 | 0.05 | 0.05 | 0.05 | 88 | 1008.7 |
| 20260506115042 | 59 | 177 | 1.0 | 5.0 | 0.04 | 0.04 | 0.04 | 87 | 1009.0 |
| 20260506114558 | 59 | 0 | 0.0 | 6.0 | 0.04 | 0.04 | 0.04 | 87 | 1008.9 |
| 20260506114041 | 59 | 0 | 2.0 | 6.0 | 0.04 | 0.04 | 0.04 | 86 | 1008.8 |
| 20260506113541 | 59 | 174 | 2.0 | 6.0 | 0.04 | 0.04 | 0.04 | 86 | 1008.8 |
| 20260506113059 | 59 | 0 | 0.0 | 6.0 | 0.04 | 0.04 | 0.04 | 86 | 1008.8 |
| 20260506112543 | 60 | 139 | 2.0 | 6.0 | 0.03 | 0.03 | 0.03 | 85 | 1008.9 |
| 20260506112041 | 60 | 165 | 1.0 | 7.0 | 0.03 | 0.03 | 0.03 | 84 | 1008.9 |
| 20260506111600 | 61 | 164 | 2.0 | 8.0 | 0.02 | 0.02 | 0.02 | 82 | 1008.8 |
| 20260506111046 | 61 | 199 | 3.0 | 10.0 | 0.02 | 0.02 | 0.02 | 81 | 1008.6 |
| 20260506110542 | 61 | 196 | 1.0 | 10.0 | 0.01 | 0.01 | 0.01 | 80 | 1008.3 |
| 20260506110056 | 62 | 131 | 4.0 | 11.0 | 0.00 | 0.00 | 0.00 | 78 | 1008.3 |
| 20260506105542 | 62 | 162 | 4.0 | 11.0 | 0.00 | 0.00 | 0.00 | 77 | 1008.1 |
| 20260506105039 | 62 | 181 | 5.0 | 11.0 | 0.00 | 0.00 | 0.00 | 76 | 1008.0 |
| 20260506104557 | 62 | 182 | 5.0 | 9.0 | 0.00 | 0.00 | 0.00 | 75 | 1008.0 |
| 20260506104039 | 63 | 179 | 2.0 | 9.0 | 0.00 | 0.00 | 0.00 | 74 | 1007.9 |
| 20260506103541 | 63 | 186 | 4.0 | 9.0 | 0.00 | 0.00 | 0.00 | 74 | 1007.8 |
| 20260506103058 | 63 | 184 | 3.0 | 9.0 | 0.00 | 0.00 | 0.00 | 73 | 1007.8 |
| 20260506102540 | 63 | 0 | 4.0 | 9.0 | 0.00 | 0.00 | 0.00 | 72 | 1007.6 |
| 20260506102040 | 63 | 158 | 4.0 | 9.0 | 0.00 | 0.00 | 0.00 | 71 | 1007.6 |
| 20260506101553 | 63 | 178 | 3.0 | 9.0 | 0.00 | 0.00 | 0.00 | 72 | 1007.6 |
| 20260506101040 | 62 | 142 | 3.0 | 8.0 | 0.00 | 0.00 | 0.00 | 72 | 1007.6 |
| 20260506100540 | 62 | 182 | 2.0 | 8.0 | 0.00 | 0.00 | 0.00 | 73 | 1007.5 |
| 20260506100054 | 62 | 170 | 2.0 | 6.0 | 0.00 | 0.00 | 0.00 | 74 | 1007.5 |
| 20260506095540 | 61 | 165 | 2.0 | 7.0 | 0.00 | 0.00 | 0.00 | 74 | 1007.5 |
| 20260506095043 | 61 | 170 | 0.0 | 7.0 | 0.00 | 0.00 | 0.00 | 74 | 1007.5 |
| 20260506094555 | 61 | 150 | 2.0 | 4.0 | 0.00 | 0.00 | 0.00 | 75 | 1007.4 |
| 20260506094042 | 61 | 0 | 0.0 | 5.0 | 0.00 | 0.00 | 0.00 | 75 | 1007.5 |
| 20260506093542 | 61 | 0 | 0.0 | 5.0 | 0.00 | 0.00 | 0.00 | 75 | 1007.5 |
| 20260506093046 | 61 | 0 | 0.0 | 4.0 | 0.00 | 0.00 | 0.00 | 75 | 1007.5 |
| 20260506092540 | 61 | 191 | 0.0 | 3.0 | 0.00 | 0.00 | 0.00 | 75 | 1007.5 |
| 20260506092040 | 61 | 0 | 0.0 | 5.0 | 0.00 | 0.00 | 0.00 | 76 | 1007.6 |
| 20260506091551 | 61 | 190 | 0.0 | 5.0 | 0.00 | 0.00 | 0.00 | 75 | 1007.6 |
| 20260506091042 | 60 | 0 | 2.0 | 5.0 | 0.00 | 0.00 | 0.00 | 76 | 1007.5 |
| 20260506090541 | 61 | 0 | 0.0 | 2.0 | 0.00 | 0.00 | 0.00 | 76 | 1007.7 |
| 20260506090051 | 60 | 157 | 0.0 | 3.0 | 0.00 | 0.00 | 0.00 | 76 | 1007.8 |
| 20260506085541 | 60 | 0 | 0.0 | 3.0 | 0.00 | 0.00 | 0.00 | 75 | 1007.7 |
| 20260506085040 | 60 | 0 | 0.0 | 11.0 | 0.00 | 0.00 | 0.00 | 77 | 1007.9 |
| 20260506084555 | 59 | 0 | 0.0 | 11.0 | 0.00 | 0.00 | 0.00 | 78 | 1007.9 |
| 20260506084040 | 58 | 209 | 2.0 | 8.0 | 0.00 | 0.00 | 0.00 | 81 | 1007.9 |
| 20260506083539 | 57 | 213 | 0.0 | 3.0 | 0.00 | 0.00 | 0.00 | 82 | 1008.0 |
| 20260506083058 | 57 | 0 | 0.0 | 3.0 | 0.00 | 0.00 | 0.00 | 82 | 1008.0 |
| 20260506082542 | 57 | 0 | 0.0 | 3.0 | 0.00 | 0.00 | 0.00 | 82 | 1008.0 |
| 20260506082042 | 57 | 0 | 0.0 | 2.0 | 0.00 | 0.00 | 0.00 | 82 | 1008.0 |
| 20260506081552 | 57 | 0 | 0.0 | 0.0 | 0.00 | 0.00 | 0.00 | 81 | 1007.9 |
| 20260506081040 | 57 | 0 | 0.0 | 3.0 | 0.00 | 0.00 | 0.00 | 81 | 1008.0 |
| 20260506080541 | 57 | 0 | 0.0 | 3.0 | 0.00 | 0.00 | 0.00 | 81 | 1007.9 |
| 20260506073047 | 57 | 0 | 0.0 | 5.0 | 0.00 | 0.00 | 0.00 | 76 | 1007.9 |
| 20260506072542 | 58 | 0 | 0.0 | 3.0 | 0.00 | 0.00 | 0.00 | 77 | 1008.1 |
| 20260506072042 | 58 | 211 | 0.0 | 4.0 | 0.00 | 0.00 | 0.00 | 76 | 1008.1 |
| 20260506071551 | 58 | 0 | 1.0 | 4.0 | 0.00 | 0.00 | 0.00 | 76 | 1008.3 |
| 20260506071038 | 58 | 235 | 0.0 | 3.0 | 0.00 | 0.00 | 0.00 | 75 | 1008.3 |
| 20260506070541 | 58 | 0 | 0.0 | 3.0 | 0.00 | 0.00 | 0.00 | 75 | 1008.2 |
| 20260506062038 | 60 | 0 | 0.0 | 0.0 | 0.00 | 0.00 | 0.00 | 73 | 1008.8 |
| 20260506061548 | 60 | 0 | 0.0 | 0.0 | 0.00 | 0.00 | 0.00 | 72 | 1008.8 |
| 20260506061046 | 60 | 0 | 0.0 | 0.0 | 0.00 | 0.00 | 0.00 | 72 | 1008.9 |
| 20260506060542 | 60 | 0 | 0.0 | 3.0 | 0.00 | 0.00 | 0.00 | 72 | 1009.0 |
| 20260506051044 | 62 | 0 | 0.0 | 1.0 | 0.00 | 0.00 | 0.00 | 62 | 1009.5 |
| 20260506050541 | 62 | 0 | 0.0 | 1.0 | 0.00 | 0.00 | 0.00 | 61 | 1009.5 |
| 20260506045044 | 64 | 148 | 2.0 | 5.0 | 0.00 | 0.00 | 0.00 | 59 | 1009.5 |
| 20260506044553 | 64 | 0 | 0.0 | 5.0 | 0.00 | 0.00 | 0.00 | 58 | 1009.5 |
| 20260506044040 | 64 | 0 | 0.0 | 4.0 | 0.00 | 0.00 | 0.00 | 58 | 1009.5 |
| 20260506043541 | 64 | 0 | 0.0 | 7.0 | 0.00 | 0.00 | 0.00 | 58 | 1009.4 |
| 20260506043043 | 64 | 151 | 1.0 | 7.0 | 0.00 | 0.00 | 0.00 | 57 | 1009.5 |
| 20260506042542 | 64 | 154 | 2.0 | 7.0 | 0.00 | 0.00 | 0.00 | 57 | 1009.4 |
| 20260506042041 | 64 | 136 | 3.0 | 7.0 | 0.00 | 0.00 | 0.00 | 59 | 1009.5 |
| 20260506041553 | 64 | 126 | 3.0 | 15.0 | 0.00 | 0.00 | 0.00 | 58 | 1009.4 |
| 20260506041041 | 63 | 157 | 3.0 | 15.0 | 0.00 | 0.00 | 0.00 | 60 | 1009.3 |
| 20260506040542 | 61 | 209 | 3.0 | 8.0 | 0.00 | 0.00 | 0.00 | 63 | 1009.2 |
| 20260506040051 | 60 | 156 | 0.0 | 3.0 | 0.00 | 0.00 | 0.00 | 67 | 1009.3 |
| 20260506035541 | 61 | 0 | 0.0 | 2.0 | 0.00 | 0.00 | 0.00 | 66 | 1009.3 |
| 20260506035041 | 62 | 0 | 0.0 | 2.0 | 0.00 | 0.00 | 0.00 | 63 | 1009.4 |
| 20260506034547 | 62 | 0 | 0.0 | 3.0 | 0.00 | 0.00 | 0.00 | 59 | 1009.4 |
| 20260506034040 | 63 | 0 | 0.0 | 3.0 | 0.00 | 0.00 | 0.00 | 59 | 1009.5 |
| 20260506033538 | 65 | 175 | 1.0 | 3.0 | 0.00 | 0.00 | 0.00 | 57 | 1009.4 |
| 20260506033045 | 66 | 175 | 1.0 | 4.0 | 0.00 | 0.00 | 0.00 | 54 | 1009.3 |
| 20260506032542 | 66 | 0 | 1.0 | 5.0 | 0.00 | 0.00 | 0.00 | 54 | 1009.3 |
| 20260506032043 | 66 | 192 | 0.0 | 7.0 | 0.00 | 0.00 | 0.00 | 51 | 1009.3 |
| 20260506031548 | 66 | 192 | 2.0 | 14.0 | 0.00 | 0.00 | 0.00 | 51 | 1009.3 |
| 20260506031043 | 65 | 196 | 3.0 | 14.0 | 0.00 | 0.00 | 0.00 | 52 | 1009.2 |
| 20260506030541 | 64 | 0 | 1.0 | 5.0 | 0.00 | 0.00 | 0.00 | 54 | 1009.3 |
| 20260506030054 | 65 | 0 | 0.0 | 3.0 | 0.00 | 0.00 | 0.00 | 53 | 1009.3 |
| 20260506025542 | 65 | 0 | 0.0 | 4.0 | 0.00 | 0.00 | 0.00 | 52 | 1009.3 |
| 20260506025041 | 65 | 0 | 0.0 | 7.0 | 0.00 | 0.00 | 0.00 | 51 | 1009.3 |
| 20260506024545 | 65 | 192 | 2.0 | 7.0 | 0.00 | 0.00 | 0.00 | 50 | 1009.3 |
| 20260506024041 | 66 | 0 | 0.0 | 4.0 | 0.00 | 0.00 | 0.00 | 49 | 1009.4 |
| 20260506023543 | 67 | 208 | 0.0 | 4.0 | 0.00 | 0.00 | 0.00 | 49 | 1009.4 |
| 20260506023058 | 67 | 207 | 0.0 | 4.0 | 0.00 | 0.00 | 0.00 | 47 | 1009.4 |
| 20260506022541 | 68 | 200 | 1.0 | 6.0 | 0.00 | 0.00 | 0.00 | 47 | 1009.4 |
| 20260506022042 | 68 | 0 | 1.0 | 7.0 | 0.00 | 0.00 | 0.00 | 47 | 1009.4 |
| 20260506021555 | 69 | 188 | 2.0 | 7.0 | 0.00 | 0.00 | 0.00 | 46 | 1009.4 |
| 20260506021041 | 69 | 223 | 2.0 | 7.0 | 0.00 | 0.00 | 0.00 | 46 | 1009.4 |
| 20260506020541 | 69 | 199 | 2.0 | 8.0 | 0.00 | 0.00 | 0.00 | 45 | 1009.4 |
| 20260506020047 | 70 | 192 | 1.0 | 8.0 | 0.00 | 0.00 | 0.00 | 45 | 1009.4 |
| 20260506015542 | 70 | 223 | 1.0 | 10.0 | 0.00 | 0.00 | 0.00 | 45 | 1009.4 |
| 20260506015041 | 70 | 211 | 3.0 | 10.0 | 0.00 | 0.00 | 0.00 | 44 | 1009.3 |
| 20260506014552 | 70 | 215 | 3.0 | 10.0 | 0.00 | 0.00 | 0.00 | 45 | 1009.1 |
| 20260506014037 | 70 | 193 | 1.0 | 7.0 | 0.00 | 0.00 | 0.00 | 45 | 1009.1 |
| 20260506013541 | 70 | 194 | 2.0 | 7.0 | 0.00 | 0.00 | 0.00 | 44 | 1009.1 |
| 20260506013043 | 71 | 196 | 1.0 | 6.0 | 0.00 | 0.00 | 0.00 | 44 | 1009.1 |
| 20260506012540 | 71 | 206 | 2.0 | 9.0 | 0.00 | 0.00 | 0.00 | 44 | 1009.0 |
| 20260506012041 | 71 | 213 | 2.0 | 9.0 | 0.00 | 0.00 | 0.00 | 43 | 1009.0 |
| 20260506011544 | 71 | 202 | 2.0 | 10.0 | 0.00 | 0.00 | 0.00 | 43 | 1009.0 |
| 20260506011042 | 71 | 194 | 2.0 | 10.0 | 0.00 | 0.00 | 0.00 | 43 | 1008.9 |
| 20260506010540 | 71 | 215 | 3.0 | 9.0 | 0.00 | 0.00 | 0.00 | 43 | 1008.8 |
| 20260506005542 | 71 | 181 | 3.0 | 12.0 | 0.00 | 0.00 | 0.00 | 45 | 1008.8 |
| 20260506005039 | 71 | 200 | 3.0 | 9.0 | 0.00 | 0.00 | 0.00 | 44 | 1008.8 |
| 20260506004550 | 72 | 201 | 2.0 | 12.0 | 0.00 | 0.00 | 0.00 | 44 | 1008.8 |
| 20260506004040 | 71 | 195 | 5.0 | 12.0 | 0.00 | 0.00 | 0.00 | 44 | 1008.6 |
| 20260506003540 | 72 | 176 | 3.0 | 9.0 | 0.00 | 0.00 | 0.00 | 44 | 1008.5 |
| 20260506003055 | 72 | 193 | 4.0 | 9.0 | 0.00 | 0.00 | 0.00 | 44 | 1008.5 |
| 20260506002541 | 72 | 159 | 3.0 | 11.0 | 0.00 | 0.00 | 0.00 | 43 | 1008.4 |
| 20260506002040 | 73 | 185 | 4.0 | 11.0 | 0.00 | 0.00 | 0.00 | 42 | 1008.4 |
| 20260506001553 | 73 | 207 | 5.0 | 11.0 | 0.00 | 0.00 | 0.00 | 42 | 1008.2 |
| 20260506001042 | 73 | 188 | 4.0 | 12.0 | 0.00 | 0.00 | 0.00 | 42 | 1008.2 |
| 20260506000541 | 74 | 182 | 4.0 | 14.0 | 0.00 | 0.00 | 0.00 | 41 | 1008.1 |
| 20260506000052 | 74 | 184 | 4.0 | 19.0 | 0.00 | 0.00 | 0.00 | 41 | 1008.1 |
| 20260505235540 | 74 | 175 | 7.0 | 19.0 | 0.00 | 0.00 | 0.00 | 41 | 1008.0 |
| 20260505235043 | 74 | 172 | 4.0 | 11.0 | 0.00 | 0.00 | 0.00 | 42 | 1008.0 |
| 20260505234606 | 74 | 179 | 4.0 | 14.0 | 0.00 | 0.00 | 0.00 | 41 | 1008.0 |
| 20260505234042 | 75 | 145 | 5.0 | 14.0 | 0.00 | 0.00 | 0.00 | 42 | 1008.1 |
| 20260505233541 | 75 | 167 | 6.0 | 13.0 | 0.00 | 0.00 | 0.00 | 40 | 1008.0 |
| 20260505233049 | 75 | 159 | 5.0 | 16.0 | 0.00 | 0.00 | 0.00 | 41 | 1008.0 |
| 20260505232540 | 75 | 167 | 8.0 | 16.0 | 0.00 | 0.00 | 0.00 | 40 | 1008.0 |
| 20260505232043 | 75 | 165 | 8.0 | 15.0 | 0.00 | 0.00 | 0.00 | 41 | 1007.9 |
| 20260505231549 | 75 | 191 | 5.0 | 15.0 | 0.00 | 0.00 | 0.00 | 42 | 1007.9 |
| 20260505231041 | 75 | 182 | 5.0 | 15.0 | 0.00 | 0.00 | 0.00 | 41 | 1007.8 |
| 20260505230541 | 75 | 175 | 4.0 | 12.0 | 0.00 | 0.00 | 0.00 | 41 | 1007.9 |
| 20260505230053 | 76 | 180 | 4.0 | 14.0 | 0.00 | 0.00 | 0.00 | 41 | 1007.9 |
| 20260505225542 | 76 | 182 | 6.0 | 14.0 | 0.00 | 0.00 | 0.00 | 41 | 1008.0 |
| 20260505225042 | 76 | 178 | 5.0 | 14.0 | 0.00 | 0.00 | 0.00 | 43 | 1007.9 |
| 20260505224551 | 76 | 162 | 4.0 | 15.0 | 0.00 | 0.00 | 0.00 | 43 | 1007.9 |
| 20260505224045 | 76 | 161 | 4.0 | 15.0 | 0.00 | 0.00 | 0.00 | 43 | 1007.9 |
| 20260505223541 | 76 | 170 | 6.0 | 14.0 | 0.00 | 0.00 | 0.00 | 41 | 1007.8 |
| 20260505223052 | 77 | 191 | 5.0 | 15.0 | 0.00 | 0.00 | 0.00 | 42 | 1007.9 |
| 20260505222542 | 77 | 205 | 9.0 | 19.0 | 0.00 | 0.00 | 0.00 | 41 | 1007.8 |
| 20260505222040 | 77 | 169 | 9.0 | 19.0 | 0.00 | 0.00 | 0.00 | 41 | 1007.9 |
| 20260505221550 | 77 | 177 | 7.0 | 21.0 | 0.00 | 0.00 | 0.00 | 41 | 1007.8 |
| 20260505221043 | 77 | 196 | 10.0 | 21.0 | 0.00 | 0.00 | 0.00 | 41 | 1007.9 |
| 20260505220546 | 78 | 188 | 7.0 | 16.0 | 0.00 | 0.00 | 0.00 | 42 | 1007.9 |
| 20260505220052 | 78 | 183 | 6.0 | 23.0 | 0.00 | 0.00 | 0.00 | 41 | 1007.8 |
| 20260505215542 | 78 | 173 | 10.0 | 24.0 | 0.00 | 0.00 | 0.00 | 39 | 1007.7 |
| 20260505215044 | 78 | 182 | 11.0 | 24.0 | 0.00 | 0.00 | 0.00 | 41 | 1007.6 |
| 20260505214609 | 79 | 186 | 5.0 | 21.0 | 0.00 | 0.00 | 0.00 | 43 | 1007.7 |
| 20260505214041 | 79 | 179 | 6.0 | 21.0 | 0.00 | 0.00 | 0.00 | 38 | 1007.7 |
| 20260505213542 | 79 | 173 | 8.0 | 20.0 | 0.00 | 0.00 | 0.00 | 37 | 1007.5 |
| 20260505213102 | 79 | 213 | 3.0 | 16.0 | 0.00 | 0.00 | 0.00 | 42 | 1007.5 |
| 20260505212542 | 80 | 194 | 5.0 | 19.0 | 0.00 | 0.00 | 0.00 | 42 | 1007.5 |
| 20260505212042 | 80 | 161 | 7.0 | 20.0 | 0.00 | 0.00 | 0.00 | 42 | 1007.5 |
| 20260505211550 | 81 | 127 | 8.0 | 20.0 | 0.00 | 0.00 | 0.00 | 42 | 1007.5 |
| 20260505211042 | 81 | 197 | 8.0 | 17.0 | 0.00 | 0.00 | 0.00 | 41 | 1007.4 |
| 20260505210541 | 81 | 163 | 5.0 | 14.0 | 0.00 | 0.00 | 0.00 | 44 | 1007.4 |
| 20260505210057 | 81 | 155 | 7.0 | 18.0 | 0.00 | 0.00 | 0.00 | 41 | 1007.5 |
| 20260505205542 | 81 | 179 | 5.0 | 18.0 | 0.00 | 0.00 | 0.00 | 44 | 1007.5 |
| 20260505205045 | 81 | 190 | 8.0 | 18.0 | 0.00 | 0.00 | 0.00 | 43 | 1007.5 |
| 20260505204557 | 81 | 192 | 7.0 | 16.0 | 0.00 | 0.00 | 0.00 | 44 | 1007.6 |
| 20260505204041 | 80 | 175 | 8.0 | 19.0 | 0.00 | 0.00 | 0.00 | 43 | 1007.6 |
| 20260505203542 | 80 | 179 | 9.0 | 19.0 | 0.00 | 0.00 | 0.00 | 43 | 1007.6 |
| 20260505203053 | 80 | 174 | 7.0 | 19.0 | 0.00 | 0.00 | 0.00 | 43 | 1007.6 |
| 20260505202541 | 80 | 190 | 9.0 | 22.0 | 0.00 | 0.00 | 0.00 | 43 | 1007.7 |
| 20260505202041 | 80 | 200 | 11.0 | 22.0 | 0.00 | 0.00 | 0.00 | 42 | 1007.8 |
| 20260505201550 | 81 | 147 | 7.0 | 17.0 | 0.00 | 0.00 | 0.00 | 44 | 1007.7 |
| 20260505201041 | 80 | 175 | 9.0 | 19.0 | 0.00 | 0.00 | 0.00 | 41 | 1007.7 |
| 20260505200541 | 80 | 155 | 10.0 | 19.0 | 0.00 | 0.00 | 0.00 | 41 | 1007.7 |
| 20260505195540 | 80 | 206 | 8.0 | 22.0 | 0.00 | 0.00 | 0.00 | 44 | 1007.8 |
| 20260505195041 | 79 | 133 | 10.0 | 20.0 | 0.00 | 0.00 | 0.00 | 45 | 1007.9 |
| 20260505194605 | 79 | 149 | 8.0 | 22.0 | 0.00 | 0.00 | 0.00 | 42 | 1007.8 |
| 20260505194042 | 80 | 177 | 12.0 | 23.0 | 0.00 | 0.00 | 0.00 | 42 | 1008.0 |
| 20260505193543 | 80 | 181 | 12.0 | 23.0 | 0.00 | 0.00 | 0.00 | 41 | 1008.1 |
| 20260505193052 | 81 | 148 | 8.0 | 21.0 | 0.00 | 0.00 | 0.00 | 41 | 1008.0 |
| 20260505192543 | 81 | 215 | 6.0 | 17.0 | 0.00 | 0.00 | 0.00 | 40 | 1008.1 |
| 20260505192041 | 81 | 211 | 8.0 | 19.0 | 0.00 | 0.00 | 0.00 | 43 | 1008.1 |
| 20260505191550 | 81 | 175 | 9.0 | 19.0 | 0.00 | 0.00 | 0.00 | 43 | 1008.2 |
| 20260505191041 | 81 | 160 | 6.0 | 19.0 | 0.00 | 0.00 | 0.00 | 44 | 1008.1 |
| 20260505190541 | 81 | 182 | 5.0 | 20.0 | 0.00 | 0.00 | 0.00 | 45 | 1008.3 |
| 20260505190049 | 81 | 196 | 8.0 | 20.0 | 0.00 | 0.00 | 0.00 | 42 | 1008.3 |
| 20260505185541 | 80 | 186 | 6.0 | 18.0 | 0.00 | 0.00 | 0.00 | 41 | 1008.4 |
| 20260505185041 | 80 | 178 | 6.0 | 20.0 | 0.00 | 0.00 | 0.00 | 44 | 1008.4 |
| 20260505184547 | 79 | 199 | 6.0 | 20.0 | 0.00 | 0.00 | 0.00 | 45 | 1008.5 |
| 20260505184041 | 79 | 204 | 9.0 | 20.0 | 0.00 | 0.00 | 0.00 | 41 | 1008.6 |
| 20260505183544 | 79 | 142 | 7.0 | 19.0 | 0.00 | 0.00 | 0.00 | 43 | 1008.6 |
| 20260505183054 | 80 | 183 | 11.0 | 27.0 | 0.00 | 0.00 | 0.00 | 41 | 1008.7 |
| 20260505182541 | 80 | 173 | 11.0 | 27.0 | 0.00 | 0.00 | 0.00 | 41 | 1008.7 |
| 20260505182041 | 80 | 171 | 9.0 | 23.0 | 0.00 | 0.00 | 0.00 | 43 | 1008.7 |
| 20260505181550 | 80 | 180 | 7.0 | 25.0 | 0.00 | 0.00 | 0.00 | 42 | 1008.7 |
| 20260505181045 | 79 | 169 | 11.0 | 25.0 | 0.00 | 0.00 | 0.00 | 45 | 1008.8 |
| 20260505180546 | 79 | 229 | 7.0 | 19.0 | 0.00 | 0.00 | 0.00 | 42 | 1008.8 |
| 20260505180107 | 79 | 183 | 9.0 | 19.0 | 0.00 | 0.00 | 0.00 | 45 | 1008.9 |
| 20260505175541 | 79 | 194 | 9.0 | 19.0 | 0.00 | 0.00 | 0.00 | 44 | 1008.9 |
| 20260505175043 | 79 | 196 | 7.0 | 14.0 | 0.00 | 0.00 | 0.00 | 47 | 1008.9 |
| 20260505174600 | 79 | 202 | 6.0 | 20.0 | 0.00 | 0.00 | 0.00 | 46 | 1009.0 |
| 20260505174042 | 79 | 211 | 6.0 | 20.0 | 0.00 | 0.00 | 0.00 | 44 | 1009.1 |
| 20260505173540 | 79 | 198 | 6.0 | 19.0 | 0.00 | 0.00 | 0.00 | 44 | 1008.9 |
| 20260505173046 | 78 | 199 | 6.0 | 20.0 | 0.00 | 0.00 | 0.00 | 46 | 1009.0 |
| 20260505172540 | 77 | 200 | 6.0 | 22.0 | 0.00 | 0.00 | 0.00 | 45 | 1009.0 |
| 20260505172040 | 77 | 168 | 11.0 | 25.0 | 0.00 | 0.00 | 0.00 | 46 | 1009.2 |
| 20260505171552 | 78 | 188 | 9.0 | 25.0 | 0.00 | 0.00 | 0.00 | 45 | 1009.2 |